TimeEDT,TemperatureF,Dew PointF,Humidity,Sea Level PressureIn,VisibilityMPH,Wind Direction,Wind SpeedMPH,Gust SpeedMPH,PrecipitationIn,Events,Conditions,WindDirDegrees,DateUTC
12:54 AM,54.0,54.0,100,30.02,0.1,Calm,Calm,-,N/A,Fog,Fog,0,2013-09-30 04:54:00
1:54 AM,54.0,53.1,97,30.02,0.1,Calm,Calm,-,N/A,Fog,Fog,0,2013-09-30 05:54:00
2:46 AM,55.4,53.6,94,30.01,0.1,Calm,Calm,-,N/A,Fog,Fog,0,2013-09-30 06:46:00
2:54 AM,55.0,54.0,96,30.01,0.1,Calm,Calm,-,N/A,Fog,Fog,0,2013-09-30 06:54:00
3:54 AM,55.0,54.0,96,30.00,0.2,Calm,Calm,-,N/A,Fog,Fog,0,2013-09-30 07:54:00
4:54 AM,54.0,53.1,97,30.01,0.2,Calm,Calm,-,N/A,Fog,Fog,0,2013-09-30 08:54:00
5:08 AM,53.6,53.6,100,30.00,0.2,Calm,Calm,-,N/A,Fog,Fog,0,2013-09-30 09:08:00
5:27 AM,53.6,53.6,100,30.01,0.1,Calm,Calm,-,N/A,Fog,Fog,0,2013-09-30 09:27:00
5:54 AM,53.1,53.1,100,30.01,0.1,Calm,Calm,-,N/A,Fog,Fog,0,2013-09-30 09:54:00
6:48 AM,53.6,53.6,100,30.01,0.2,Calm,Calm,-,N/A,Fog,Fog,0,2013-09-30 10:48:00
6:54 AM,53.1,53.1,100,30.02,0.2,Calm,Calm,-,N/A,Fog,Fog,0,2013-09-30 10:54:00
7:12 AM,53.6,53.6,100,30.02,0.2,South,3.5,-,N/A,Fog,Fog,180,2013-09-30 11:12:00
7:54 AM,53.1,52.0,96,30.03,0.1,Calm,Calm,-,N/A,Fog,Fog,0,2013-09-30 11:54:00
8:54 AM,52.0,52.0,100,30.04,0.2,Calm,Calm,-,N/A,Fog,Fog,0,2013-09-30 12:54:00
9:08 AM,51.8,51.8,100,30.04,0.1,Calm,Calm,-,N/A,Fog,Fog,0,2013-09-30 13:08:00
9:40 AM,53.6,53.6,100,30.04,0.2,Calm,Calm,-,N/A,Fog,Fog,0,2013-09-30 13:40:00
9:54 AM,55.0,54.0,96,30.04,0.2,South,3.5,-,N/A,Fog,Fog,180,2013-09-30 13:54:00
10:41 AM,55.4,55.4,100,30.04,0.8,Variable,3.5,-,N/A,,Overcast,0,2013-09-30 14:41:00
10:49 AM,55.4,55.4,100,30.04,1.0,Calm,Calm,-,N/A,,Overcast,0,2013-09-30 14:49:00
10:54 AM,55.9,55.9,100,30.04,1.0,Calm,Calm,-,N/A,,Overcast,0,2013-09-30 14:54:00
11:11 AM,57.2,55.4,94,30.03,6.0,Calm,Calm,-,N/A,,Overcast,0,2013-09-30 15:11:00
11:54 AM,59.0,57.9,96,30.03,7.0,South,4.6,-,N/A,,Overcast,180,2013-09-30 15:54:00
12:16 PM,60.8,57.2,88,30.02,9.0,SSE,5.8,-,N/A,,Mostly Cloudy,150,2013-09-30 16:16:00
12:54 PM,63.0,57.9,84,30.03,10.0,SW,4.6,-,N/A,,Mostly Cloudy,220,2013-09-30 16:54:00
1:08 PM,64.4,57.2,77,30.03,10.0,SW,5.8,-,N/A,,Mostly Cloudy,220,2013-09-30 17:08:00
1:35 PM,66.2,57.2,73,30.01,10.0,SSW,5.8,-,N/A,,Scattered Clouds,200,2013-09-30 17:35:00
1:54 PM,66.0,55.9,70,30.01,10.0,Variable,4.6,-,N/A,,Scattered Clouds,0,2013-09-30 17:54:00
2:54 PM,70.0,55.0,59,29.97,10.0,SW,5.8,-,N/A,,Scattered Clouds,220,2013-09-30 18:54:00
3:54 PM,71.1,53.1,53,29.95,10.0,WSW,11.5,-,N/A,,Scattered Clouds,250,2013-09-30 19:54:00
4:54 PM,73.0,54.0,51,29.94,10.0,WSW,5.8,-,N/A,,Scattered Clouds,250,2013-09-30 20:54:00
5:54 PM,73.0,55.0,53,29.95,10.0,West,4.6,-,N/A,,Scattered Clouds,280,2013-09-30 21:54:00
6:54 PM,70.0,55.0,59,29.95,10.0,Calm,Calm,-,N/A,,Scattered Clouds,0,2013-09-30 22:54:00
7:54 PM,62.1,55.0,78,29.96,10.0,Calm,Calm,-,N/A,,Mostly Cloudy,0,2013-09-30 23:54:00
8:54 PM,59.0,55.0,87,29.98,10.0,Calm,Calm,-,N/A,,Mostly Cloudy,0,2013-10-01 00:54:00
9:54 PM,57.0,54.0,89,29.99,10.0,South,3.5,-,N/A,,Mostly Cloudy,180,2013-10-01 01:54:00
10:54 PM,57.0,54.0,89,29.99,10.0,Calm,Calm,-,N/A,,Scattered Clouds,0,2013-10-01 02:54:00
11:54 PM,57.0,54.0,89,29.99,8.0,SSW,5.8,-,N/A,,Scattered Clouds,200,2013-10-01 03:54:00